EZY6MW EGGD-EHAM

Flight info

Callsign EZY6MW
Flight time 0h 53m
Altitude 29000
Route YORQI L607 ALHAD P72 IPRIL M197 REDFA
Aircraft A320/M-SDE3FGHIRWY/LB1

Departure

Time 2026-04-30 12:07
Airport Bristol Airport (EGGD)

Arrival

Time 2026-04-30 13:01
Airport Amsterdam Airport Schiphol (EHAM)
Time Latitude Longitude Altitude Speed Heading
2026-04-30 11:48 51.38558 -2.71083 622 ft 0 kts 356°
2026-04-30 11:58 51.38548 -2.71082 626 ft 2 kts 356°
2026-04-30 11:58 51.38532 -2.71080 618 ft 2 kts 356°
2026-04-30 11:59 51.38515 -2.71079 616 ft 2 kts 356°
2026-04-30 11:59 51.38498 -2.71077 615 ft 2 kts 356°
2026-04-30 11:59 51.38481 -2.71075 613 ft 2 kts 356°
2026-04-30 11:59 51.38464 -2.71074 616 ft 2 kts
2026-04-30 12:00 51.38448 -2.71066 613 ft 2 kts 291°
2026-04-30 12:00 51.38447 -2.71062 613 ft 0 kts 287°
2026-04-30 12:02 51.38453 -2.71101 625 ft 8 kts 278°
2026-04-30 12:02 51.38450 -2.71227 613 ft 14 kts 267°
2026-04-30 12:03 51.38445 -2.71352 613 ft 6 kts 265°
2026-04-30 12:03 51.38436 -2.71678 621 ft 23 kts 267°
2026-04-30 12:03 51.38428 -2.71929 614 ft 24 kts 269°
2026-04-30 12:04 51.38424 -2.72202 620 ft 24 kts 266°
2026-04-30 12:04 51.38413 -2.72453 615 ft 22 kts 266°
2026-04-30 12:04 51.38404 -2.72692 623 ft 21 kts 266°
2026-04-30 12:04 51.38395 -2.72916 619 ft 19 kts 266°
2026-04-30 12:05 51.38387 -2.73109 616 ft 13 kts 266°
2026-04-30 12:05 51.38385 -2.73157 616 ft 0 kts 266°
2026-04-30 12:05 51.38385 -2.73160 616 ft 2 kts 266°
2026-04-30 12:06 51.38380 -2.73240 627 ft 11 kts 258°
2026-04-30 12:06 51.38332 -2.73333 619 ft 11 kts 204°
2026-04-30 12:06 51.38264 -2.73336 619 ft 9 kts 168°
2026-04-30 12:06 51.38215 -2.73267 621 ft 10 kts 110°
2026-04-30 12:07 51.38226 -2.73002 616 ft 58 kts 86°
2026-04-30 12:07 51.38272 -2.71869 639 ft 140 kts 87°
2026-04-30 12:07 51.38355 -2.70199 1375 ft 152 kts 87°
2026-04-30 12:07 51.38422 -2.68555 2398 ft 140 kts 90°
2026-04-30 12:08 51.38470 -2.66910 2871 ft 160 kts 90°
2026-04-30 12:08 51.38519 -2.64998 3268 ft 184 kts 92°
2026-04-30 12:08 51.38570 -2.62809 3772 ft 209 kts 92°
2026-04-30 12:08 51.38629 -2.60336 4345 ft 234 kts 92°
2026-04-30 12:09 51.38721 -2.57648 5147 ft 250 kts 87°
2026-04-30 12:09 51.39423 -2.54992 5801 ft 274 kts 56°
2026-04-30 12:09 51.40882 -2.52953 5966 ft 282 kts 39°
2026-04-30 12:09 51.42565 -2.51363 6115 ft 286 kts 32°
2026-04-30 12:10 51.44372 -2.49903 6168 ft 288 kts 30°
2026-04-30 12:10 51.46122 -2.48461 6169 ft 286 kts 33°
2026-04-30 12:10 51.47864 -2.46903 6169 ft 287 kts 34°
2026-04-30 12:10 51.49573 -2.45262 6170 ft 285 kts 39°
2026-04-30 12:11 51.50951 -2.43093 6173 ft 275 kts 62°
2026-04-30 12:11 51.51711 -2.40337 6265 ft 270 kts 83°
2026-04-30 12:11 51.51789 -2.37341 7192 ft 266 kts 99°
2026-04-30 12:11 51.51591 -2.34390 8251 ft 267 kts 100°
2026-04-30 12:12 51.51397 -2.31410 9235 ft 271 kts 100°
2026-04-30 12:12 51.51199 -2.28378 10185 ft 275 kts 100°
2026-04-30 12:12 51.50985 -2.25234 10705 ft 295 kts 100°
2026-04-30 12:12 51.50745 -2.21831 11055 ft 318 kts 100°
2026-04-30 12:13 51.50493 -2.18230 11733 ft 328 kts 99°
2026-04-30 12:13 51.50242 -2.14564 12725 ft 333 kts 99°
2026-04-30 12:13 51.49988 -2.10853 13698 ft 336 kts 99°
2026-04-30 12:13 51.49728 -2.07109 14492 ft 339 kts 99°
2026-04-30 12:14 51.49462 -2.03338 15224 ft 342 kts 99°
2026-04-30 12:14 51.49194 -1.99524 15953 ft 346 kts 100°
2026-04-30 12:14 51.48923 -1.95670 16680 ft 349 kts 100°
2026-04-30 12:14 51.48647 -1.91776 17371 ft 353 kts 100°
2026-04-30 12:15 51.48365 -1.87825 18017 ft 359 kts 101°
2026-04-30 12:15 51.48076 -1.83822 18647 ft 364 kts 101°
2026-04-30 12:15 51.47780 -1.79770 19246 ft 367 kts 101°
2026-04-30 12:15 51.47479 -1.75703 19866 ft 369 kts 101°
2026-04-30 12:16 51.47177 -1.71604 20485 ft 371 kts 101°
2026-04-30 12:16 51.46856 -1.67483 21087 ft 372 kts 104°
2026-04-30 12:16 51.46329 -1.63424 21690 ft 373 kts 106°
2026-04-30 12:16 51.45775 -1.59344 22283 ft 375 kts 106°
2026-04-30 12:17 51.44642 -1.51118 23438 ft 380 kts 106°
2026-04-30 12:17 51.44070 -1.46968 23973 ft 382 kts 106°
2026-04-30 12:17 51.43505 -1.42852 24421 ft 385 kts 105°
2026-04-30 12:18 51.42928 -1.38651 24884 ft 387 kts 105°
2026-04-30 12:18 51.42343 -1.34427 25334 ft 389 kts 106°
2026-04-30 12:18 51.41749 -1.30182 25788 ft 391 kts 106°
2026-04-30 12:18 51.41155 -1.25920 26213 ft 394 kts 106°
2026-04-30 12:19 51.40592 -1.21606 26649 ft 398 kts 102°
2026-04-30 12:19 51.40428 -1.17153 27066 ft 405 kts 92°
2026-04-30 12:19 51.40796 -1.12630 27489 ft 414 kts 82°
2026-04-30 12:19 51.41720 -1.08207 27900 ft 424 kts 71°
2026-04-30 12:20 51.43024 -1.03941 28315 ft 428 kts 69°
2026-04-30 12:20 51.44341 -0.99647 28702 ft 431 kts 69°
2026-04-30 12:20 51.45659 -0.95320 29068 ft 433 kts 69°
2026-04-30 12:20 51.46976 -0.90988 29204 ft 431 kts 69°
2026-04-30 12:21 51.49572 -0.82446 29229 ft 423 kts 69°
2026-04-30 12:21 51.51996 -0.73893 29241 ft 417 kts 77°
2026-04-30 12:22 51.53774 -0.65041 29243 ft 416 kts 77°
2026-04-30 12:22 51.55535 -0.56179 29247 ft 416 kts 77°
2026-04-30 12:23 51.57263 -0.47467 29242 ft 416 kts 77°
2026-04-30 12:23 51.59013 -0.38608 29228 ft 416 kts 77°
2026-04-30 12:24 51.60758 -0.29743 29225 ft 416 kts 77°
2026-04-30 12:24 51.62492 -0.20873 29309 ft 416 kts 78°
2026-04-30 12:25 51.64211 -0.12050 29297 ft 416 kts 77°
2026-04-30 12:25 51.65937 -0.03158 29287 ft 416 kts 78°
2026-04-30 12:26 51.67648 0.05727 29231 ft 416 kts 77°
2026-04-30 12:26 51.69361 0.14632 29220 ft 416 kts 77°
2026-04-30 12:27 51.71063 0.23549 29244 ft 416 kts 77°
2026-04-30 12:27 51.72759 0.32458 29247 ft 416 kts 77°
2026-04-30 12:28 51.74447 0.41384 29249 ft 416 kts 78°
2026-04-30 12:28 51.76112 0.50259 29232 ft 416 kts 77°
2026-04-30 12:29 51.77797 0.59247 29244 ft 416 kts 77°
2026-04-30 12:29 51.79460 0.68129 29249 ft 416 kts 77°
2026-04-30 12:30 51.81121 0.77077 29249 ft 416 kts 77°
2026-04-30 12:30 51.82776 0.86037 29253 ft 416 kts 77°
2026-04-30 12:31 51.84423 0.95005 29253 ft 417 kts 77°
2026-04-30 12:31 51.86058 1.04169 29281 ft 428 kts 77°
2026-04-30 12:32 51.87682 1.13361 29278 ft 420 kts 77°
2026-04-30 12:32 51.89338 1.22390 29286 ft 418 kts 77°
2026-04-30 12:33 51.90982 1.31415 29292 ft 418 kts 77°
2026-04-30 12:33 51.92612 1.40445 29295 ft 417 kts 77°
2026-04-30 12:34 51.94236 1.49474 29292 ft 417 kts 77°
2026-04-30 12:34 51.95844 1.58518 29294 ft 418 kts 77°
2026-04-30 12:35 51.97441 1.67568 29290 ft 417 kts 77°
2026-04-30 12:35 51.99036 1.76624 29295 ft 417 kts 77°
2026-04-30 12:36 52.00625 1.85684 29215 ft 418 kts 77°
2026-04-30 12:36 52.01418 1.90234 28941 ft 419 kts 77°
2026-04-30 12:36 52.02211 1.94783 28666 ft 419 kts 77°
2026-04-30 12:37 52.03005 1.99340 28200 ft 420 kts 77°
2026-04-30 12:37 52.03796 2.03896 27719 ft 418 kts 77°
2026-04-30 12:37 52.04581 2.08433 27256 ft 415 kts 77°
2026-04-30 12:37 52.05349 2.12874 26801 ft 413 kts 76°
2026-04-30 12:38 52.06121 2.17346 26352 ft 410 kts 76°
2026-04-30 12:38 52.06885 2.21789 25911 ft 407 kts 76°
2026-04-30 12:38 52.07643 2.26218 25474 ft 405 kts 76°
2026-04-30 12:38 52.08391 2.30610 25043 ft 402 kts 76°
2026-04-30 12:39 52.09132 2.34979 24612 ft 399 kts 76°
2026-04-30 12:39 52.09864 2.39323 24200 ft 397 kts 76°
2026-04-30 12:39 52.10591 2.43634 23785 ft 394 kts 76°
2026-04-30 12:39 52.11379 2.47876 23401 ft 390 kts 71°
2026-04-30 12:40 52.12571 2.51818 23075 ft 390 kts 61°
2026-04-30 12:40 52.13976 2.55619 22875 ft 392 kts 61°
2026-04-30 12:40 52.15367 2.59444 22628 ft 391 kts 62°
2026-04-30 12:40 52.16744 2.63263 22391 ft 390 kts 62°
2026-04-30 12:41 52.18111 2.67074 22149 ft 389 kts 62°
2026-04-30 12:41 52.19475 2.70874 21907 ft 388 kts 62°
2026-04-30 12:41 52.20837 2.74663 21665 ft 386 kts 62°
2026-04-30 12:41 52.22193 2.78436 21419 ft 385 kts 62°
2026-04-30 12:42 52.23526 2.82149 21196 ft 384 kts 62°
2026-04-30 12:42 52.24874 2.85903 20959 ft 383 kts 62°
2026-04-30 12:42 52.26216 2.89645 20722 ft 381 kts 62°
2026-04-30 12:42 52.27554 2.93378 20488 ft 380 kts 62°
2026-04-30 12:43 52.28883 2.97091 20252 ft 379 kts 62°
2026-04-30 12:43 52.30205 3.00796 20016 ft 376 kts 62°
2026-04-30 12:43 52.31087 3.03279 19861 ft 374 kts 63°
2026-04-30 12:43 52.32376 3.06909 19638 ft 373 kts 63°
2026-04-30 12:44 52.33673 3.10566 19396 ft 371 kts 63°
2026-04-30 12:44 52.34967 3.14215 19178 ft 370 kts 63°
2026-04-30 12:44 52.36254 3.17846 18949 ft 369 kts 63°
2026-04-30 12:44 52.37536 3.21472 18718 ft 367 kts 63°
2026-04-30 12:45 52.38815 3.25096 18475 ft 366 kts 63°
2026-04-30 12:45 52.40081 3.28689 18240 ft 365 kts 63°
2026-04-30 12:45 52.41345 3.32285 18013 ft 363 kts 63°
2026-04-30 12:45 52.42605 3.35871 17789 ft 362 kts 63°
2026-04-30 12:46 52.43858 3.39439 17569 ft 361 kts 63°
2026-04-30 12:46 52.44898 3.43141 17343 ft 356 kts 73°
2026-04-30 12:46 52.45526 3.47051 17126 ft 353 kts 79°
2026-04-30 12:46 52.46083 3.50963 16906 ft 351 kts 79°
2026-04-30 12:47 52.46635 3.54852 16687 ft 349 kts 79°
2026-04-30 12:47 52.47185 3.58721 16471 ft 348 kts 79°
2026-04-30 12:47 52.47732 3.62570 16253 ft 346 kts 79°
2026-04-30 12:47 52.48276 3.66399 16042 ft 344 kts 79°
2026-04-30 12:48 52.48821 3.70222 15827 ft 343 kts 79°
2026-04-30 12:48 52.49363 3.74025 15614 ft 342 kts 79°
2026-04-30 12:48 52.49903 3.77827 15399 ft 341 kts 79°
2026-04-30 12:48 52.50436 3.81618 15188 ft 340 kts 79°
2026-04-30 12:49 52.50965 3.85395 14988 ft 339 kts 79°
2026-04-30 12:49 52.51493 3.89164 14781 ft 338 kts 79°
2026-04-30 12:49 52.51978 3.92881 14560 ft 336 kts 84°
2026-04-30 12:49 52.52053 3.96690 14360 ft 333 kts 96°
2026-04-30 12:50 52.51640 4.00443 13655 ft 337 kts 107°
2026-04-30 12:50 52.50795 4.04070 12720 ft 344 kts 112°
2026-04-30 12:50 52.49890 4.07728 12050 ft 344 kts 112°
2026-04-30 12:50 52.49002 4.11323 11516 ft 338 kts 112°
2026-04-30 12:51 52.48138 4.14844 11278 ft 324 kts 112°
2026-04-30 12:51 52.47317 4.18188 11165 ft 309 kts 112°
2026-04-30 12:51 52.46532 4.21376 11029 ft 295 kts 112°
2026-04-30 12:51 52.45780 4.24426 10912 ft 281 kts 112°
2026-04-30 12:52 52.45066 4.27326 10440 ft 270 kts 112°
2026-04-30 12:52 52.44372 4.30143 9907 ft 263 kts 112°
2026-04-30 12:52 52.43687 4.32931 9469 ft 263 kts 112°
2026-04-30 12:52 52.42827 4.35559 9034 ft 263 kts 128°
2026-04-30 12:53 52.41435 4.37476 8593 ft 265 kts 149°
2026-04-30 12:53 52.39667 4.38361 8153 ft 271 kts 172°
2026-04-30 12:53 52.37779 4.38239 7731 ft 273 kts 180°
2026-04-30 12:53 52.35899 4.37996 7402 ft 269 kts 180°
2026-04-30 12:54 52.34043 4.37751 6990 ft 267 kts 180°
2026-04-30 12:54 52.32196 4.37509 6573 ft 266 kts 180°
2026-04-30 12:54 52.30359 4.37275 6146 ft 263 kts 180°
2026-04-30 12:54 52.28548 4.37044 5840 ft 256 kts 180°
2026-04-30 12:55 52.26821 4.36819 5712 ft 242 kts 179°
2026-04-30 12:55 52.25221 4.36876 5469 ft 219 kts 162°
2026-04-30 12:55 52.23909 4.37813 5322 ft 199 kts 143°
2026-04-30 12:55 52.22937 4.39394 5001 ft 198 kts 124°
2026-04-30 12:56 52.22324 4.41361 4694 ft 197 kts 117°
2026-04-30 12:56 52.21748 4.43370 4410 ft 194 kts 117°
2026-04-30 12:56 52.21178 4.45362 4036 ft 196 kts 115°
2026-04-30 12:56 52.20880 4.47581 3580 ft 206 kts 96°
2026-04-30 12:57 52.20846 4.49923 3231 ft 206 kts 95°
2026-04-30 12:57 52.20880 4.52246 2983 ft 205 kts 83°
2026-04-30 12:57 52.21431 4.54387 2770 ft 207 kts 63°
2026-04-30 12:57 52.22201 4.56362 2502 ft 206 kts 63°
2026-04-30 12:58 52.22972 4.58339 2210 ft 207 kts 62°
2026-04-30 12:58 52.23722 4.60272 1935 ft 203 kts 62°
2026-04-30 12:58 52.24479 4.62227 1662 ft 198 kts 62°
2026-04-30 12:58 52.25197 4.64084 1407 ft 189 kts 62°
2026-04-30 12:59 52.25861 4.65801 1176 ft 172 kts 62°
2026-04-30 12:59 52.26479 4.67402 946 ft 163 kts 63°
2026-04-30 12:59 52.27037 4.68845 762 ft 139 kts 63°
2026-04-30 12:59 52.27529 4.70124 563 ft 128 kts 63°
2026-04-30 13:00 52.27994 4.71333 388 ft 122 kts 64°
2026-04-30 13:00 52.28440 4.72500 214 ft 120 kts 63°
2026-04-30 13:00 52.28878 4.73641 51 ft 118 kts 63°
2026-04-30 13:00 52.29285 4.74732 1 ft 97 kts 56°
2026-04-30 13:01 52.29559 4.75416 -4 ft 47 kts 57°
2026-04-30 13:01 52.29681 4.75694 -3 ft 26 kts 42°
2026-04-30 13:01 52.29824 4.75836 -4 ft 17 kts 28°
2026-04-30 13:01 52.29876 4.75881 -3 ft 0 kts 27°
2026-04-30 13:03 52.29901 4.75901 -3 ft 9 kts 24°
2026-04-30 13:03 52.29938 4.75868 -2 ft 6 kts 272°
2026-04-30 13:03 52.29911 4.75787 -2 ft 13 kts 237°
2026-04-30 13:04 52.29846 4.75621 -2 ft 21 kts 238°
2026-04-30 13:04 52.29782 4.75427 -2 ft 17 kts 251°
2026-04-30 13:04 52.29807 4.75261 -2 ft 16 kts 310°
2026-04-30 13:04 52.29878 4.75127 -2 ft 16 kts 311°
2026-04-30 13:05 52.29969 4.74957 -2 ft 24 kts 311°
2026-04-30 13:05 52.30092 4.74731 -2 ft 27 kts 311°
2026-04-30 13:05 52.30201 4.74527 -2 ft 21 kts 311°
2026-04-30 13:06 52.30387 4.74216 -2 ft 17 kts 334°
2026-04-30 13:06 52.30497 4.74197 -2 ft 16 kts
2026-04-30 13:06 52.30615 4.74207 -2 ft 19 kts
2026-04-30 13:06 52.30763 4.74221 -2 ft 24 kts
2026-04-30 13:07 52.30937 4.74238 -2 ft 26 kts
2026-04-30 13:07 52.31129 4.74256 -2 ft 29 kts
2026-04-30 13:07 52.31322 4.74275 -2 ft 22 kts
2026-04-30 13:07 52.31393 4.74369 -2 ft 14 kts 80°
2026-04-30 13:08 52.31400 4.74581 -2 ft 24 kts 88°
2026-04-30 13:08 52.31408 4.74889 -2 ft 29 kts 88°
2026-04-30 13:08 52.31419 4.75201 -2 ft 25 kts 86°
2026-04-30 13:08 52.31422 4.75384 -2 ft 12 kts 99°
2026-04-30 13:09 52.31346 4.75450 -2 ft 16 kts 176°
2026-04-30 13:09 52.31230 4.75460 -2 ft 19 kts 176°
2026-04-30 13:09 52.31128 4.75493 -2 ft 15 kts 179°
2026-04-30 13:09 52.31079 4.75435 -2 ft 2 kts 233°
2026-04-30 13:10 52.31071 4.75431 -2 ft 2 kts 199°
2026-04-30 13:10 52.31048 4.75440 -2 ft 3 kts 156°
2026-04-30 13:10 52.31028 4.75458 -2 ft 0 kts 150°
2026-04-30 13:10 52.31027 4.75459 -2 ft 0 kts 149°